User: anonymous   Login
Location: Arthez
(43.0833°N, 0.2500°W)
Time: 08:08:22
(UTC+00:00)
Language:

Spot 2 - Orbit

View from above orbital plane
View from above orbital plane
View from above satellite
View from above satellite

Ground track
Ground track

The orbit data is extracted from the following two-line orbital elements,

1 20436U 90005A   22024.69111584  .00000258  00000-0  49322-4 0  9993
2 20436  98.7295  59.8578 0145327  66.6011 295.0399 14.66813925679601
Epoch (UTC): 24 January 2022 16:35:12
Eccentricity: 0.0145327
inclination: 98.7295°
perigee height: 569 km
apogee height: 774 km
right ascension of ascending node: 59.8578°
argument of perigee: 66.6011°
revolutions per day: 14.66813925
mean anomaly at epoch: 295.0399°
orbit number at epoch: 67960

The dashed part of the orbit path shows where the satellite is in the earth's shadow,  

DLR